Location: Multiple Mirror Telescope
(31.6889°N, 110.8853°W)
Time: 12:44:42
(UTC-07:00)

Hubble Space Telescope - Pass Details

Date: 30 November 2023
Orbit: 516 x 519 km, 28.5° (Epoch: 27 February)

Event Time Altitude Azimuth Distance (km) Brightness Sun altitude
Rises 19:28:16 0° 269° (W) 2,622 5.6 -26.9°
Reaches altitude 10° 19:30:40 10° 258° (WSW) 1,737 4.4 -27.4°
Enters shadow 19:33:24 28° 220° (SW) 981 2.5 -27.9°
